This demonstration page uses our WeatherBlox Daily Observations layout. Learn more.

Left ArrowRight Arrow

39.92423, -83.80882

Hourly Observations for April 20, 2022

Temp ( °F °C ) Dew Point ( °F °C ) Humidity (%) Winds ( mph kmh ) Pressure ( in mb ) Visibility ( mi km ) Precip ( " mm )
12:56 am 00:56 Clear 31 -0.6 29 -1.7 92 92 ENE 5 7 30.31 1027 10 16 0.00 0.00
1:56 am 01:56 Clear 30 -1.1 30 -1.1 100 100 SE 6 9 30.32 1027 10 16 0.00 0.00
2:56 am 02:56 Clear 29 -1.7 29 -1.7 100 100 ESE 3 6 30.34 1027 10 16 0.00 0.00
3:56 am 03:56 Clear 29 -1.7 29 -1.7 100 100 SSE 6 9 30.35 1028 10 16 0.00 0.00
4:56 am 04:56 Clear 30 -1.1 28 -2.2 92 92 SE 5 7 30.35 1028 10 16 0.00 0.00
5:56 am 05:56 Mostly Cloudy 29 -1.7 28 -2.2 96 96 ESE 7 11 30.34 1027 10 16 0.00 0.00
6:56 am 06:56 Mostly Sunny 31 -0.6 28 -2.2 89 89 ESE 8 13 30.34 1028 10 16 0.00 0.00
7:56 am 07:56 Sunny 34 1.1 30 -1.1 85 85 SE 7 11 30.37 1029 10 16 0.00 0.00
8:56 am 08:56 Sunny 41 5 30 -1.1 65 65 SE 12 19 30.38 1029 10 16 0.00 0.00
9:56 am 09:56 Sunny 44 6.7 32 0 63 63 SSE 12 19 30.37 1029 10 16 0.00 0.00
10:56 am 10:56 Sunny 49 9.4 33 0.6 55 55 SSE 12 19 30.36 1028 10 16 0.00 0.00
11:56 am 11:56 Cloudy 51 10.6 32 0 48 48 SSE 13 20 30.36 1028 10 16 0.00 0.00
12:56 pm 12:56 Cloudy 53 11.7 34 1.1 48 48 S 12 19 30.35 1028 10 16 0.00 0.00
1:56 pm 13:56 Cloudy 54 12.2 34 1.1 47 47 SSE 14 22 30.32 1027 10 16 0.00 0.00
2:56 pm 14:56 Mostly Cloudy 56 13.3 34 1.1 44 44 SE 14 22 30.31 1026 10 16 0.00 0.00
3:56 pm 15:56 Partly Cloudy 57 13.9 32 0 39 39 SE 12 19 30.27 1025 10 16 0.00 0.00
4:56 pm 16:56 Sunny 59 15 32 0 36 36 ESE 15 24 30.23 1024 10 16 0.00 0.00
5:56 pm 17:56 Sunny 61 16.1 34 1.1 36 36 ESE 15 24 30.22 1023 10 16 0.00 0.00
6:56 pm 18:56 Sunny 58 14.4 34 1.1 41 41 ESE 15 24 30.19 1023 10 16 0.00 0.00
7:56 pm 19:56 Sunny 57 13.9 34 1.1 42 42 SE 13 20 30.19 1022 10 16 0.00 0.00
8:56 pm 20:56 Clear 56 13.3 34 1.1 44 44 SE 12 19 30.16 1022 10 16 0.00 0.00
9:56 pm 21:56 Cloudy 55 12.8 34 1.1 45 45 SE 14 22 30.16 1021 10 16 0.00 0.00
10:56 pm 22:56 Clear 54 12.2 34 1.1 47 47 SE 14 22 30.12 1020 10 16 0.00 0.00
11:56 pm 23:56 Mostly Cloudy 54 12.2 34 1.1 47 47 SE 17 28 30.11 1020 10 16 0.00 0.00

Powered by AerisWeather